Location: Newark
(13.8625°N, 100.5144°E)
Time: 14:34:58
(UTC+00:00)

LightSail 2 - Pass Details

Date: 10 May 2021
Orbit: 685 x 700 km, 24.0° (Epoch: 11 June)

Event Time Altitude Azimuth Distance (km) Brightness Sun altitude
Exits shadow 20:57:46 22° 334° (NNW) 1,498 6.8 -26.4°
Maximum altitude 20:59:14 25° 1° (N) 1,378 6.9 -26.1°
Drops below altitude 10° 21:03:20 10° 56° (NE) 2,123 8.6 -25.2°
Sets 21:06:07 0° 69° (ENE) 3,036 9.8 -24.6°
